| time (UTC) | temp C | wind direction | speed KPH | gust KPH | rain 1hr cm | rain 24hr cm | rain mn cm | humidity % | barometer mb |
| 20260904094705 | 19 | 303 | 0.0 | 0.0 | 0.00 | 0.03 | 0.00 | 91 | 1010.5 |
| 20260904094204 | 19 | 303 | 0.0 | 0.0 | 0.00 | 0.03 | 0.00 | 91 | 1010.3 |
| 20260904093704 | 19 | 303 | 0.0 | 0.0 | 0.00 | 0.03 | 0.00 | 91 | 1010.3 |
| 20260904093204 | 20 | 303 | 0.0 | 0.0 | 0.00 | 0.03 | 0.00 | 91 | 1010.3 |
| 20260904092704 | 20 | 303 | 0.0 | 0.0 | 0.00 | 0.03 | 0.00 | 91 | 1010.3 |
| 20260904091703 | 20 | 303 | 1.6 | 3.2 | 0.00 | 0.03 | 0.00 | 91 | 1010.3 |
| 20260904091204 | 20 | 303 | 0.0 | 0.0 | 0.00 | 0.03 | 0.00 | 91 | 1010.3 |
| 20260904090704 | 20 | 303 | 0.0 | 1.6 | 0.00 | 0.03 | 0.00 | 91 | 1010.3 |
| 20260904090204 | 20 | 303 | 0.0 | 1.6 | 0.00 | 0.03 | 0.00 | 91 | 1010.3 |
| 20260904085704 | 20 | 303 | 0.0 | 0.0 | 0.00 | 0.03 | 0.00 | 91 | 1010.2 |
| 20260904085204 | 20 | 303 | 0.0 | 1.6 | 0.00 | 0.03 | 0.00 | 91 | 1010.4 |
| 20260904084704 | 20 | 303 | 0.0 | 1.6 | 0.00 | 0.03 | 0.00 | 91 | 1010.2 |
| 20260904084205 | 20 | 303 | 0.0 | 0.0 | 0.00 | 0.03 | 0.00 | 91 | 1010.1 |
| 20260904083705 | 20 | 303 | 0.0 | 0.0 | 0.00 | 0.03 | 0.00 | 91 | 1010.0 |
| 20260904083204 | 20 | 303 | 0.0 | 0.0 | 0.00 | 0.03 | 0.00 | 91 | 1009.8 |
| 20260904082704 | 20 | 303 | 0.0 | 1.6 | 0.00 | 0.03 | 0.00 | 91 | 1009.8 |
| 20260904082205 | 20 | 303 | 0.0 | 0.0 | 0.00 | 0.03 | 0.00 | 91 | 1009.8 |
| 20260904081704 | 20 | 303 | 0.0 | 0.0 | 0.00 | 0.03 | 0.00 | 91 | 1009.8 |
| 20260904081205 | 20 | 303 | 0.0 | 0.0 | 0.00 | 0.03 | 0.00 | 91 | 1009.8 |
| 20260904080205 | 20 | 303 | 0.0 | 1.6 | 0.00 | 0.03 | 0.00 | 91 | 1009.8 |
| 20260904075705 | 20 | 303 | 1.6 | 3.2 | 0.00 | 0.03 | 0.00 | 91 | 1009.9 |
| 20260904074704 | 20 | 303 | 0.0 | 0.0 | 0.00 | 0.03 | 0.00 | 91 | 1009.9 |
| 20260904074205 | 20 | 303 | 0.0 | 1.6 | 0.00 | 0.03 | 0.00 | 91 | 1009.9 |
| 20260904073705 | 20 | 303 | 0.0 | 0.0 | 0.00 | 0.03 | 0.00 | 91 | 1010.0 |
| 20260904073205 | 20 | 303 | 0.0 | 1.6 | 0.00 | 0.03 | 0.00 | 91 | 1010.0 |
| 20260904072705 | 20 | 303 | 1.6 | 3.2 | 0.00 | 0.03 | 0.00 | 91 | 1010.1 |
| 20260904072204 | 20 | 303 | 0.0 | 1.6 | 0.00 | 0.03 | 0.00 | 91 | 1010.1 |
| 20260904071705 | 20 | 303 | 0.0 | 0.0 | 0.00 | 0.03 | 0.00 | 91 | 1010.1 |
| 20260904071207 | 20 | 303 | 0.0 | 0.0 | 0.00 | 0.03 | 0.00 | 91 | 1010.1 |
| 20260904070204 | 20 | 303 | 0.0 | 0.0 | 0.00 | 0.03 | 0.00 | 91 | 1010.3 |
| 20260904065703 | 20 | 303 | 0.0 | 0.0 | 0.00 | 0.03 | 0.00 | 91 | 1010.5 |
| 20260904064204 | 20 | 303 | 0.0 | 0.0 | 0.00 | 0.03 | 0.00 | 91 | 1010.7 |
| 20260904063704 | 20 | 303 | 0.0 | 0.0 | 0.00 | 0.03 | 0.00 | 91 | 1010.7 |
| 20260904062704 | 20 | 303 | 0.0 | 0.0 | 0.00 | 0.03 | 0.00 | 91 | 1010.8 |
| 20260904062204 | 20 | 303 | 0.0 | 0.0 | 0.00 | 0.03 | 0.00 | 91 | 1010.8 |
| 20260904061703 | 20 | 303 | 0.0 | 1.6 | 0.00 | 0.03 | 0.00 | 91 | 1011.0 |
| 20260904061204 | 20 | 303 | 0.0 | 0.0 | 0.00 | 0.03 | 0.00 | 91 | 1010.9 |
| 20260904060704 | 20 | 303 | 0.0 | 0.0 | 0.00 | 0.03 | 0.00 | 91 | 1010.8 |
| 20260904060204 | 20 | 303 | 0.0 | 0.0 | 0.00 | 0.03 | 0.00 | 91 | 1010.9 |
| 20260904055704 | 20 | 303 | 0.0 | 0.0 | 0.00 | 0.03 | 0.00 | 91 | 1011.0 |
| 20260904055204 | 20 | 303 | 0.0 | 0.0 | 0.00 | 0.03 | 0.00 | 91 | 1011.0 |
| 20260904054704 | 20 | 303 | 0.0 | 0.0 | 0.00 | 0.05 | 0.00 | 91 | 1010.9 |
| 20260904054204 | 20 | 303 | 0.0 | 0.0 | 0.00 | 0.05 | 0.00 | 91 | 1010.8 |
| 20260904053704 | 20 | 303 | 0.0 | 0.0 | 0.00 | 0.08 | 0.00 | 91 | 1011.0 |
| 20260904052704 | 20 | 303 | 0.0 | 0.0 | 0.00 | 0.15 | 0.00 | 90 | 1011.0 |
| 20260904052204 | 20 | 303 | 0.0 | 0.0 | 0.00 | 0.18 | 0.00 | 90 | 1011.0 |
| 20260904051704 | 20 | 303 | 0.0 | 0.0 | 0.00 | 0.20 | 0.00 | 90 | 1011.1 |
| 20260904051204 | 20 | 303 | 0.0 | 0.0 | 0.00 | 0.23 | 0.00 | 90 | 1011.0 |
| 20260904050704 | 20 | 303 | 0.0 | 0.0 | 0.00 | 0.25 | 0.00 | 90 | 1011.1 |
| 20260904050204 | 20 | 303 | 0.0 | 0.0 | 0.00 | 0.25 | 0.00 | 90 | 1011.2 |
| 20260904045704 | 20 | 303 | 0.0 | 0.0 | 0.00 | 0.28 | 0.00 | 90 | 1011.3 |
| 20260904045204 | 20 | 303 | 0.0 | 0.0 | 0.00 | 0.30 | 0.00 | 90 | 1011.4 |
| 20260904044704 | 20 | 303 | 0.0 | 0.0 | 0.00 | 0.36 | 0.00 | 90 | 1011.4 |
| 20260904044204 | 20 | 303 | 0.0 | 1.6 | 0.00 | 0.41 | 0.00 | 90 | 1011.4 |
| 20260904043704 | 20 | 303 | 1.6 | 3.2 | 0.00 | 0.46 | 0.00 | 90 | 1011.5 |
| 20260904042704 | 21 | 303 | 0.0 | 0.0 | 0.00 | 0.48 | 0.00 | 90 | 1011.6 |
| 20260904041704 | 20 | 303 | 0.0 | 0.0 | 0.00 | 0.48 | 0.00 | 90 | 1011.6 |
| 20260904041204 | 20 | 303 | 0.0 | 0.0 | 0.00 | 0.48 | 0.00 | 90 | 1011.6 |
| 20260904040704 | 20 | 303 | 0.0 | 0.0 | 0.00 | 0.48 | 0.00 | 90 | 1011.5 |
| 20260904040204 | 20 | 303 | 0.0 | 1.6 | 0.00 | 0.48 | 0.00 | 90 | 1011.6 |
| 20260904035704 | 20 | 303 | 0.0 | 3.2 | 0.00 | 0.48 | 0.48 | 90 | 1011.7 |
| 20260904035204 | 20 | 303 | 1.6 | 4.8 | 0.00 | 0.48 | 0.48 | 90 | 1011.7 |
| 20260904034703 | 20 | 302 | 0.0 | 3.2 | 0.00 | 0.48 | 0.48 | 90 | 1011.7 |
| 20260904034205 | 20 | 302 | 0.0 | 0.0 | 0.00 | 0.48 | 0.48 | 90 | 1011.8 |
| 20260904033704 | 20 | 302 | 0.0 | 0.0 | 0.00 | 0.48 | 0.48 | 90 | 1011.7 |
| 20260904033204 | 20 | 302 | 0.0 | 0.0 | 0.00 | 0.48 | 0.48 | 90 | 1011.7 |
| 20260904032704 | 20 | 302 | 0.0 | 0.0 | 0.00 | 0.48 | 0.48 | 90 | 1011.8 |
| 20260904032203 | 20 | 302 | 0.0 | 0.0 | 0.00 | 0.48 | 0.48 | 90 | 1011.8 |
| 20260904031705 | 20 | 302 | 0.0 | 0.0 | 0.00 | 0.48 | 0.48 | 90 | 1011.9 |
| 20260904031205 | 20 | 302 | 0.0 | 0.0 | 0.00 | 0.48 | 0.48 | 90 | 1011.8 |
| 20260904030204 | 20 | 302 | 0.0 | 0.0 | 0.00 | 0.48 | 0.48 | 90 | 1011.8 |
| 20260904025704 | 20 | 302 | 0.0 | 0.0 | 0.00 | 0.48 | 0.48 | 90 | 1011.8 |
| 20260904025204 | 21 | 302 | 0.0 | 0.0 | 0.00 | 0.48 | 0.48 | 90 | 1011.8 |
| 20260904024704 | 21 | 302 | 0.0 | 0.0 | 0.00 | 0.48 | 0.48 | 90 | 1012.1 |
| 20260904024204 | 21 | 302 | 0.0 | 0.0 | 0.00 | 0.48 | 0.48 | 90 | 1012.2 |
| 20260904023704 | 20 | 302 | 0.0 | 0.0 | 0.00 | 0.48 | 0.48 | 90 | 1012.2 |
| 20260904023204 | 20 | 302 | 0.0 | 0.0 | 0.00 | 0.48 | 0.48 | 90 | 1012.2 |
| 20260904022203 | 20 | 302 | 0.0 | 0.0 | 0.00 | 0.48 | 0.48 | 90 | 1012.2 |
| 20260904021703 | 20 | 302 | 0.0 | 0.0 | 0.00 | 0.48 | 0.48 | 90 | 1012.3 |
| 20260904021204 | 20 | 302 | 0.0 | 0.0 | 0.00 | 0.48 | 0.48 | 90 | 1012.4 |
| 20260904020204 | 20 | 302 | 0.0 | 0.0 | 0.00 | 0.48 | 0.48 | 89 | 1012.2 |
| 20260904015704 | 20 | 302 | 0.0 | 0.0 | 0.00 | 0.48 | 0.48 | 89 | 1012.2 |
| 20260904015203 | 20 | 302 | 0.0 | 0.0 | 0.00 | 0.48 | 0.48 | 89 | 1012.3 |
| 20260904014704 | 20 | 302 | 0.0 | 0.0 | 0.00 | 0.48 | 0.48 | 89 | 1012.3 |
| 20260904014204 | 20 | 302 | 0.0 | 0.0 | 0.00 | 0.48 | 0.48 | 89 | 1012.4 |
| 20260904013204 | 21 | 302 | 0.0 | 0.0 | 0.00 | 0.48 | 0.48 | 89 | 1012.3 |
| 20260904012204 | 21 | 302 | 0.0 | 0.0 | 0.00 | 0.48 | 0.48 | 89 | 1012.4 |
| 20260904011704 | 21 | 302 | 0.0 | 0.0 | 0.00 | 0.48 | 0.48 | 89 | 1012.4 |
| 20260904011204 | 21 | 302 | 0.0 | 0.0 | 0.00 | 0.48 | 0.48 | 88 | 1012.4 |
| 20260904010204 | 21 | 302 | 0.0 | 0.0 | 0.00 | 0.48 | 0.48 | 88 | 1012.3 |
| 20260904005704 | 21 | 302 | 0.0 | 0.0 | 0.00 | 0.48 | 0.48 | 88 | 1012.2 |
| 20260904004704 | 21 | 302 | 0.0 | 0.0 | 0.00 | 0.48 | 0.48 | 88 | 1012.0 |
| 20260904004204 | 21 | 302 | 0.0 | 0.0 | 0.00 | 0.48 | 0.48 | 88 | 1012.0 |
| 20260904003704 | 21 | 302 | 0.0 | 0.0 | 0.00 | 0.48 | 0.48 | 88 | 1012.0 |
| 20260904003204 | 21 | 302 | 0.0 | 0.0 | 0.00 | 0.48 | 0.48 | 88 | 1012.1 |
| 20260904002704 | 22 | 302 | 0.0 | 0.0 | 0.00 | 0.48 | 0.48 | 88 | 1012.1 |
| 20260904002204 | 22 | 302 | 0.0 | 0.0 | 0.00 | 0.48 | 0.48 | 88 | 1012.0 |
| 20260904001704 | 22 | 302 | 0.0 | 0.0 | 0.00 | 0.48 | 0.48 | 87 | 1012.2 |
| 20260904001203 | 22 | 302 | 0.0 | 0.0 | 0.00 | 0.48 | 0.48 | 87 | 1012.3 |
| 20260904000704 | 22 | 302 | 0.0 | 0.0 | 0.00 | 0.48 | 0.48 | 87 | 1012.1 |
| 20260903235704 | 22 | 302 | 0.0 | 0.0 | 0.00 | 0.48 | 0.48 | 87 | 1011.7 |
| 20260903235204 | 22 | 302 | 0.0 | 0.0 | 0.00 | 0.48 | 0.48 | 87 | 1011.6 |
| 20260903234704 | 22 | 302 | 0.0 | 0.0 | 0.00 | 0.48 | 0.48 | 87 | 1011.6 |
| 20260903234204 | 22 | 302 | 0.0 | 0.0 | 0.00 | 0.48 | 0.48 | 86 | 1011.5 |
| 20260903233205 | 23 | 302 | 0.0 | 0.0 | 0.00 | 0.48 | 0.48 | 86 | 1011.4 |
| 20260903232704 | 23 | 302 | 0.0 | 0.0 | 0.00 | 0.48 | 0.48 | 86 | 1011.4 |
| 20260903232205 | 23 | 302 | 0.0 | 0.0 | 0.00 | 0.48 | 0.48 | 85 | 1011.4 |
| 20260903231703 | 23 | 302 | 0.0 | 0.0 | 0.00 | 0.48 | 0.48 | 85 | 1011.4 |
| 20260903231204 | 23 | 302 | 0.0 | 0.0 | 0.00 | 0.48 | 0.48 | 85 | 1011.6 |
| 20260903230704 | 23 | 302 | 0.0 | 0.0 | 0.00 | 0.48 | 0.48 | 85 | 1011.6 |
| 20260903230204 | 23 | 302 | 0.0 | 0.0 | 0.00 | 0.48 | 0.48 | 84 | 1011.5 |
| 20260903225704 | 24 | 302 | 0.0 | 0.0 | 0.00 | 0.48 | 0.48 | 84 | 1011.6 |
| 20260903225204 | 24 | 302 | 0.0 | 0.0 | 0.00 | 0.48 | 0.48 | 84 | 1011.3 |
| 20260903224704 | 24 | 302 | 0.0 | 0.0 | 0.00 | 0.48 | 0.48 | 84 | 1011.3 |
| 20260903223704 | 25 | 302 | 0.0 | 0.0 | 0.00 | 0.48 | 0.48 | 83 | 1011.2 |
| 20260903223204 | 25 | 302 | 0.0 | 0.0 | 0.00 | 0.48 | 0.48 | 82 | 1011.2 |
| 20260903222704 | 25 | 302 | 0.0 | 0.0 | 0.00 | 0.48 | 0.48 | 82 | 1011.1 |
| 20260903222204 | 25 | 302 | 0.0 | 0.0 | 0.00 | 0.48 | 0.48 | 81 | 1011.1 |
| 20260903221204 | 26 | 302 | 0.0 | 4.8 | 0.00 | 0.48 | 0.48 | 76 | 1011.3 |
| 20260903220704 | 26 | 305 | 1.6 | 3.2 | 0.00 | 0.48 | 0.48 | 75 | 1011.3 |
| 20260903220204 | 26 | 305 | 1.6 | 3.2 | 0.00 | 0.48 | 0.48 | 74 | 1011.3 |
| 20260903215704 | 26 | 305 | 1.6 | 3.2 | 0.00 | 0.48 | 0.48 | 73 | 1011.3 |
| 20260903215205 | 27 | 305 | 1.6 | 4.8 | 0.00 | 0.48 | 0.48 | 73 | 1011.3 |
| 20260903214704 | 27 | 314 | 1.6 | 3.2 | 0.00 | 0.48 | 0.48 | 72 | 1011.3 |
| 20260903213704 | 27 | 314 | 3.2 | 8.0 | 0.00 | 0.48 | 0.48 | 72 | 1011.3 |
| 20260903213204 | 27 | 309 | 1.6 | 4.8 | 0.00 | 0.48 | 0.48 | 72 | 1011.3 |
| 20260903212204 | 27 | 325 | 3.2 | 4.8 | 0.00 | 0.48 | 0.48 | 71 | 1011.3 |
| 20260903211204 | 27 | 329 | 1.6 | 4.8 | 0.00 | 0.48 | 0.48 | 71 | 1011.2 |
| 20260903210704 | 27 | 321 | 1.6 | 4.8 | 0.00 | 0.48 | 0.48 | 70 | 1011.5 |
| 20260903210204 | 28 | 322 | 1.6 | 4.8 | 0.00 | 0.48 | 0.48 | 73 | 1011.4 |
| 20260903205704 | 28 | 237 | 1.6 | 4.8 | 0.00 | 0.48 | 0.48 | 71 | 1011.5 |
| 20260903205204 | 27 | 226 | 0.0 | 4.8 | 0.00 | 0.48 | 0.48 | 71 | 1011.5 |
| 20260903204704 | 27 | 265 | 1.6 | 4.8 | 0.00 | 0.48 | 0.48 | 69 | 1011.5 |
| 20260903204204 | 28 | 207 | 3.2 | 4.8 | 0.00 | 0.48 | 0.48 | 69 | 1011.4 |
| 20260903203703 | 28 | 252 | 3.2 | 4.8 | 0.00 | 0.48 | 0.48 | 71 | 1011.4 |
| 20260903203205 | 27 | 320 | 3.2 | 4.8 | 0.00 | 0.48 | 0.48 | 71 | 1011.4 |
| 20260903202704 | 27 | 220 | 1.6 | 3.2 | 0.00 | 0.48 | 0.48 | 70 | 1011.4 |
| 20260903202204 | 27 | 219 | 3.2 | 4.8 | 0.00 | 0.48 | 0.48 | 70 | 1011.3 |
| 20260903201704 | 27 | 260 | 1.6 | 4.8 | 0.00 | 0.48 | 0.48 | 73 | 1011.4 |
| 20260903201204 | 27 | 268 | 1.6 | 3.2 | 0.00 | 0.48 | 0.48 | 74 | 1011.4 |
| 20260903200704 | 26 | 268 | 1.6 | 4.8 | 0.00 | 0.48 | 0.48 | 74 | 1011.4 |
| 20260903200204 | 26 | 269 | 0.0 | 3.2 | 0.00 | 0.48 | 0.48 | 76 | 1011.4 |
| 20260903195704 | 26 | 269 | 0.0 | 3.2 | 0.00 | 0.48 | 0.48 | 76 | 1011.5 |
| 20260903195204 | 26 | 269 | 3.2 | 4.8 | 0.00 | 0.48 | 0.48 | 74 | 1011.4 |
| 20260903194706 | 26 | 269 | 1.6 | 3.2 | 0.00 | 0.48 | 0.48 | 75 | 1011.5 |
| 20260903194204 | 26 | 269 | 0.0 | 3.2 | 0.00 | 0.48 | 0.48 | 75 | 1011.5 |
| 20260903193704 | 27 | 269 | 0.0 | 4.8 | 0.00 | 0.48 | 0.48 | 74 | 1011.6 |
| 20260903193204 | 27 | 246 | 1.6 | 4.8 | 0.00 | 0.48 | 0.48 | 74 | 1011.7 |
| 20260903192704 | 26 | 232 | 0.0 | 1.6 | 0.00 | 0.48 | 0.48 | 75 | 1011.7 |
| 20260903192204 | 26 | 232 | 1.6 | 3.2 | 0.00 | 0.48 | 0.48 | 73 | 1011.8 |
| 20260903191704 | 27 | 232 | 3.2 | 4.8 | 0.00 | 0.48 | 0.48 | 73 | 1011.9 |
| 20260903190704 | 27 | 232 | 1.6 | 3.2 | 0.00 | 0.48 | 0.48 | 72 | 1011.9 |
| 20260903190204 | 27 | 232 | 1.6 | 4.8 | 0.00 | 0.48 | 0.48 | 74 | 1012.0 |
| 20260903185204 | 27 | 318 | 3.2 | 8.0 | 0.00 | 0.48 | 0.48 | 74 | 1012.0 |
| 20260903184704 | 26 | 249 | 1.6 | 4.8 | 0.00 | 0.48 | 0.48 | 75 | 1012.1 |
| 20260903183703 | 26 | 280 | 3.2 | 4.8 | 0.00 | 0.48 | 0.48 | 76 | 1012.2 |
| 20260903183204 | 26 | 237 | 3.2 | 9.7 | 0.00 | 0.48 | 0.48 | 76 | 1012.2 |
| 20260903182704 | 26 | 214 | 3.2 | 8.0 | 0.00 | 0.48 | 0.48 | 76 | 1012.4 |
| 20260903182204 | 26 | 178 | 3.2 | 8.0 | 0.00 | 0.48 | 0.48 | 76 | 1012.3 |
| 20260903181704 | 26 | 203 | 3.2 | 4.8 | 0.00 | 0.48 | 0.48 | 76 | 1012.4 |
| 20260903181204 | 26 | 280 | 1.6 | 4.8 | 0.00 | 0.48 | 0.48 | 77 | 1012.3 |
| 20260903180704 | 26 | 257 | 1.6 | 9.7 | 0.00 | 0.48 | 0.48 | 76 | 1012.3 |
| 20260903180204 | 26 | 240 | 1.6 | 4.8 | 0.00 | 0.48 | 0.48 | 75 | 1012.3 |
| 20260903175704 | 26 | 255 | 4.8 | 4.8 | 0.00 | 0.48 | 0.48 | 76 | 1012.5 |
| 20260903175204 | 26 | 249 | 0.0 | 4.8 | 0.00 | 0.48 | 0.48 | 77 | 1012.4 |
| 20260903174704 | 26 | 224 | 3.2 | 4.8 | 0.00 | 0.48 | 0.48 | 76 | 1012.4 |
| 20260903174204 | 26 | 222 | 3.2 | 9.7 | 0.00 | 0.48 | 0.48 | 76 | 1012.5 |
| 20260903173704 | 26 | 251 | 3.2 | 11.3 | 0.00 | 0.48 | 0.48 | 75 | 1012.5 |
| 20260903173204 | 26 | 225 | 3.2 | 4.8 | 0.00 | 0.48 | 0.48 | 74 | 1012.5 |
| 20260903172204 | 26 | 213 | 3.2 | 4.8 | 0.00 | 0.48 | 0.48 | 76 | 1012.7 |
| 20260903171704 | 25 | 239 | 1.6 | 4.8 | 0.00 | 0.48 | 0.48 | 77 | 1012.7 |
| 20260903171203 | 25 | 239 | 1.6 | 4.8 | 0.00 | 0.48 | 0.48 | 78 | 1012.8 |
| 20260903170705 | 25 | 236 | 1.6 | 4.8 | 0.00 | 0.48 | 0.48 | 79 | 1012.9 |
| 20260903170204 | 25 | 242 | 1.6 | 3.2 | 0.00 | 0.48 | 0.48 | 78 | 1012.9 |
| 20260903165704 | 25 | 242 | 1.6 | 4.8 | 0.00 | 0.48 | 0.48 | 78 | 1012.9 |
| 20260903164704 | 25 | 244 | 1.6 | 4.8 | 0.00 | 0.48 | 0.48 | 76 | 1012.9 |
| 20260903164204 | 25 | 243 | 3.2 | 8.0 | 0.00 | 0.48 | 0.48 | 76 | 1012.8 |
| 20260903163704 | 25 | 183 | 1.6 | 4.8 | 0.00 | 0.48 | 0.48 | 76 | 1012.7 |
| 20260903163204 | 25 | 256 | 1.6 | 4.8 | 0.00 | 0.48 | 0.48 | 77 | 1012.7 |
| 20260903162704 | 25 | 254 | 3.2 | 4.8 | 0.00 | 0.48 | 0.48 | 77 | 1012.8 |
| 20260903162204 | 25 | 255 | 1.6 | 3.2 | 0.00 | 0.48 | 0.48 | 78 | 1013.0 |
| 20260903161204 | 24 | 253 | 1.6 | 4.8 | 0.00 | 0.48 | 0.48 | 78 | 1013.2 |
| 20260903160204 | 24 | 241 | 1.6 | 8.0 | 0.00 | 0.48 | 0.48 | 79 | 1013.4 |
| 20260903155704 | 24 | 231 | 3.2 | 4.8 | 0.00 | 0.48 | 0.48 | 79 | 1013.3 |
| 20260903155205 | 23 | 232 | 1.6 | 3.2 | 0.00 | 0.48 | 0.48 | 80 | 1013.3 |
| 20260903154203 | 23 | 232 | 1.6 | 4.8 | 0.00 | 0.48 | 0.48 | 81 | 1013.2 |
| 20260903153704 | 23 | 232 | 1.6 | 4.8 | 0.00 | 0.48 | 0.48 | 81 | 1013.3 |
| 20260903153204 | 23 | 232 | 3.2 | 4.8 | 0.00 | 0.48 | 0.48 | 82 | 1013.4 |
| 20260903152204 | 23 | 232 | 3.2 | 4.8 | 0.00 | 0.48 | 0.48 | 82 | 1013.4 |
| 20260903151204 | 22 | 232 | 1.6 | 3.2 | 0.00 | 0.48 | 0.48 | 83 | 1013.6 |
| 20260903150704 | 22 | 232 | 1.6 | 3.2 | 0.00 | 0.48 | 0.48 | 83 | 1013.6 |
| 20260903150204 | 22 | 232 | 1.6 | 4.8 | 0.00 | 0.48 | 0.48 | 83 | 1013.5 |
| 20260903145704 | 22 | 232 | 0.0 | 3.2 | 0.00 | 0.48 | 0.48 | 83 | 1013.5 |
| 20260903145204 | 22 | 232 | 0.0 | 3.2 | 0.00 | 0.48 | 0.48 | 84 | 1013.5 |
| 20260903144704 | 22 | 232 | 3.2 | 4.8 | 0.00 | 0.48 | 0.48 | 84 | 1013.5 |
| 20260903144203 | 22 | 232 | 1.6 | 4.8 | 0.00 | 0.48 | 0.48 | 85 | 1013.7 |
| 20260903143704 | 22 | 232 | 1.6 | 3.2 | 0.00 | 0.48 | 0.48 | 84 | 1013.7 |
| 20260903143205 | 22 | 232 | 1.6 | 3.2 | 0.00 | 0.48 | 0.48 | 85 | 1013.6 |
| 20260903142704 | 22 | 232 | 0.0 | 3.2 | 0.00 | 0.48 | 0.48 | 86 | 1013.6 |
| 20260903142204 | 21 | 232 | 1.6 | 3.2 | 0.00 | 0.48 | 0.48 | 85 | 1013.5 |
| 20260903141705 | 21 | 232 | 1.6 | 3.2 | 0.00 | 0.48 | 0.48 | 85 | 1013.5 |
| 20260903141204 | 21 | 232 | 3.2 | 4.8 | 0.00 | 0.48 | 0.48 | 87 | 1013.5 |
| 20260903140704 | 21 | 232 | 1.6 | 3.2 | 0.00 | 0.48 | 0.48 | 87 | 1013.4 |
| 20260903140204 | 21 | 232 | 1.6 | 3.2 | 0.00 | 0.48 | 0.48 | 88 | 1013.5 |
| 20260903135204 | 21 | 232 | 0.0 | 3.2 | 0.00 | 0.48 | 0.48 | 89 | 1013.5 |
| 20260903134704 | 21 | 232 | 1.6 | 4.8 | 0.00 | 0.48 | 0.48 | 90 | 1013.5 |
| 20260903133704 | 21 | 232 | 0.0 | 0.0 | 0.00 | 0.48 | 0.48 | 91 | 1013.5 |
| 20260903133204 | 21 | 232 | 0.0 | 1.6 | 0.00 | 0.48 | 0.48 | 90 | 1013.5 |
| 20260903132704 | 21 | 232 | 0.0 | 1.6 | 0.00 | 0.48 | 0.48 | 91 | 1013.5 |
| 20260903132204 | 20 | 232 | 0.0 | 3.2 | 0.00 | 0.48 | 0.48 | 91 | 1013.4 |
| 20260903131705 | 20 | 232 | 0.0 | 3.2 | 0.00 | 0.48 | 0.48 | 91 | 1013.5 |
| 20260903131204 | 20 | 232 | 1.6 | 4.8 | 0.00 | 0.48 | 0.48 | 91 | 1013.7 |
| 20260903130705 | 20 | 232 | 1.6 | 4.8 | 0.00 | 0.48 | 0.48 | 91 | 1013.8 |
| 20260903130204 | 20 | 232 | 1.6 | 4.8 | 0.00 | 0.48 | 0.48 | 91 | 1013.8 |
| 20260903125704 | 20 | 232 | 0.0 | 1.6 | 0.00 | 0.48 | 0.48 | 91 | 1013.9 |
| 20260903125204 | 20 | 232 | 0.0 | 0.0 | 0.00 | 0.48 | 0.48 | 91 | 1013.9 |
| 20260903124703 | 20 | 232 | 0.0 | 1.6 | 0.00 | 0.48 | 0.48 | 91 | 1013.8 |
| 20260903124204 | 20 | 232 | 0.0 | 1.6 | 0.00 | 0.48 | 0.48 | 91 | 1013.9 |
| 20260903123705 | 20 | 232 | 0.0 | 1.6 | 0.00 | 0.48 | 0.48 | 91 | 1013.9 |
| 20260903122704 | 20 | 232 | 0.0 | 0.0 | 0.00 | 0.48 | 0.48 | 91 | 1014.1 |
| 20260903122204 | 20 | 232 | 0.0 | 1.6 | 0.03 | 0.48 | 0.48 | 91 | 1014.0 |
| 20260903121704 | 20 | 232 | 0.0 | 0.0 | 0.03 | 0.48 | 0.48 | 91 | 1014.1 |
| 20260903121205 | 20 | 232 | 0.0 | 0.0 | 0.03 | 0.48 | 0.48 | 91 | 1014.2 |
| 20260903120704 | 19 | 232 | 0.0 | 0.0 | 0.03 | 0.48 | 0.48 | 91 | 1014.2 |
| 20260903120204 | 19 | 232 | 0.0 | 0.0 | 0.03 | 0.48 | 0.48 | 91 | 1014.3 |
| 20260903115705 | 19 | 232 | 0.0 | 0.0 | 0.03 | 0.48 | 0.48 | 91 | 1014.4 |
| 20260903114705 | 19 | 232 | 0.0 | 1.6 | 0.03 | 0.48 | 0.48 | 91 | 1014.4 |
| 20260903113704 | 19 | 232 | 0.0 | 0.0 | 0.03 | 0.48 | 0.48 | 91 | 1014.4 |
| 20260903113204 | 19 | 232 | 0.0 | 0.0 | 0.03 | 0.48 | 0.48 | 91 | 1014.4 |
| 20260903112705 | 19 | 232 | 0.0 | 0.0 | 0.03 | 0.48 | 0.48 | 91 | 1014.5 |
| 20260903112204 | 19 | 232 | 0.0 | 1.6 | 0.00 | 0.46 | 0.46 | 91 | 1014.6 |
| 20260903111704 | 19 | 232 | 0.0 | 0.0 | 0.00 | 0.46 | 0.46 | 91 | 1014.7 |
| 20260903111204 | 19 | 232 | 0.0 | 0.0 | 0.00 | 0.46 | 0.46 | 91 | 1014.7 |
| 20260903110203 | 19 | 232 | 0.0 | 0.0 | 0.00 | 0.46 | 0.46 | 91 | 1014.7 |
| 20260903105203 | 19 | 232 | 0.0 | 1.6 | 0.00 | 0.46 | 0.46 | 91 | 1014.8 |
| 20260903104703 | 19 | 232 | 0.0 | 0.0 | 0.00 | 0.46 | 0.46 | 91 | 1014.8 |
| 20260903104204 | 19 | 232 | 0.0 | 0.0 | 0.00 | 0.46 | 0.46 | 91 | 1014.8 |
| 20260903103705 | 19 | 232 | 0.0 | 1.6 | 0.00 | 0.46 | 0.46 | 91 | 1014.6 |
| 20260903103203 | 19 | 232 | 0.0 | 0.0 | 0.00 | 0.46 | 0.46 | 91 | 1014.4 |
| 20260903102204 | 19 | 232 | 0.0 | 1.6 | 0.00 | 0.46 | 0.46 | 91 | 1014.2 |
| 20260903101704 | 19 | 232 | 0.0 | 0.0 | 0.00 | 0.46 | 0.46 | 91 | 1014.2 |
| 20260903101204 | 19 | 232 | 0.0 | 0.0 | 0.00 | 0.46 | 0.46 | 91 | 1014.2 |
| 20260903100704 | 19 | 232 | 0.0 | 0.0 | 0.00 | 0.46 | 0.46 | 91 | 1014.1 |
| 20260903100204 | 19 | 232 | 0.0 | 0.0 | 0.00 | 0.46 | 0.46 | 91 | 1014.3 |
| 20260903095703 | 19 | 232 | 0.0 | 0.0 | 0.00 | 0.46 | 0.46 | 90 | 1014.2 |
| 20260903095204 | 19 | 232 | 0.0 | 0.0 | 0.00 | 0.46 | 0.46 | 91 | 1014.2 |